sat.trackr.live / text

‹ back to catalog

STARLINK-31983

NORAD 60602 · 2024-150V

PAYLOAD ACTIVE UNKNOWN

§ Identity

Operator
Country
US
Launch date
2024-08-20
Launch site
AFETR
Launch vehicle
Mass (kg)
RCS (m²)

Purposes: comms

External: N2YO · Heavens-Above · Gunter

§ Orbital elements

Epoch: 2026-09-21T21:21:00.266688Z

Period
93.85 min
Inclination
53.1589°
Eccentricity
0.0001309
Mean motion
15.34387958 rev/d
Perigee alt
461.8 km
Apogee alt
463.6 km
Semi-major
6,840.9 km
B*
4.3598e-5
RAAN
111.2171°
Arg perigee
91.9872°
Mean anomaly
268.1280°
Rev number
11,806

§ Raw data

STARLINK-319831 60602U 24150V   26264.88958642  .00001096  00000+0  43598-4 0  99942 60602  53.1589 111.2171 0001309  91.9872 268.1280 15.34387958118066

JSON: /api/v1/satellites/60602 · /tle

For live sub-satellite position, see the globe view (requires WebGL).

§ Visibility from observer

Set your observer location to see the next 7 days of passes ≥ 10°. The values pass through the URL so the page stays shareable.

No JS? Fill the form by hand. The geolocation button needs JavaScript.